Погода в Агашорыне

Казахстан     53°27′11″N   74°14′20″E
темп.,
°C
ветер,
м/с
пор.,
м/с
влажн.,
%
обл.,
%
осадки,
мм/ч
давл.,
гПа
погр.,
м
25 февраля, чт
чт2500:00−24ююз5119091 0.0 1013219
03:00−22ююз61391100 0.0 1013457
06:00−25ююз5129198 0.0 1013302
09:00−23ююз61194100 0.0 1014510
12:00−21зюз6891100 0.1 1015878
15:00−21зюз5788100 0.1 1017910
18:00−26з599699 0.1 1019213
21:00−25з499897 0.1 1022223
26 февраля, пт
пт2600:00−25з5119798 0.1 1025282
03:00−29з6119895 0.0 1028241
06:00−32зюз599884 0.0 1031145
09:00−31зюз499890 0.0 1033197
12:00−26зюз579595 0.1 1035393
15:00−24зюз5793100 0.0 1035483
18:00−26юз4697100 0.1 103585
21:00−29юз449561 0.0 103644
27 февраля, сб
сб2700:00−30юз449432 0.0 103649
03:00−31юз34930 0.0 103639
06:00−32юз34940 0.0 103644
09:00−31ююз34940 0.0 103645
12:00−27ю46920 0.0 1036223
15:00−25ю47920 0.0 1034257
18:00−26ююв47949 0.0 1033106
21:00−22ююв599395 0.0 1029174
28 февраля, вс
вс2800:00−20ююв5109185 0.0 1026169
03:00−16ююв61187100 0.0 1023298
06:00−12ююв81494100 0.3 1019547
09:00−10ю91494100 1.4 1016721
12:00−6ю81292100 2.3 1012852
15:00−4ююз71192100 0.3 1010802
18:00−3ююз61295100 0.7 1008587
21:00−2ююз61296100 0.4 1007405
1 марта, пн
пн100:000юз71389100 0.5 1007485
03:000юз61098100 0.4 1006484
06:000зюз5999100 1.8 1005413
09:00−1зюз71295100 0.3 1006601
12:00−1зюз8129099 0.8 1007743
15:00−1зюз71192100 0.1 1008900
18:00−2зюз71295100 0.9 1008615
21:00−8з71291100 0.6 1011412